Location: Unspecified
(47.8330°N, 0.0000°E)
Time: 15:12:43
(UTC+00:00)

VELOX 1 - Pass Details

Date: 25 August 2019
Orbit: 629 x 643 km, 98.2° (Epoch: 23 September)

Event Time Altitude Azimuth Distance (km) Brightness Sun altitude
Exits shadow 01:30:26 38° 331° (NNW) 976 ? -28.1°
Drops below altitude 10° 01:33:13 10° 342° (NNW) 2,025 ? -27.9°
Sets 01:35:26 0° 345° (NNW) 2,940 ? -27.7°
